EW2974 Weather Reports


Display with metric or nautical units.
time (UTC)temp
F
wind
direction
speed
MPH
gust
MPH
rain 1hr
in
rain 24hr
in
rain mn
in
humidity
%
barometer
mb
20260901112904 74 236 0.0 0.0 0.00 0.00 0.00 90 1013.7
20260901111904 73 236 0.0 0.0 0.00 0.00 0.00 90 1013.7
20260901110904 73 244 0.0 0.0 0.00 0.00 0.00 90 1013.5
20260901110404 73 244 0.0 0.0 0.00 0.00 0.00 90 1013.4
20260901105904 73 244 0.0 0.0 0.00 0.00 0.00 89 1013.4
20260901105404 73 244 0.0 0.0 0.00 0.00 0.00 89 1013.4
20260901104904 74 244 0.0 0.0 0.00 0.00 0.00 89 1013.4
20260901104404 73 244 0.0 0.0 0.00 0.00 0.00 89 1013.4
20260901103904 73 244 0.0 0.0 0.00 0.00 0.00 90 1013.4
20260901103404 73 244 0.0 0.0 0.00 0.00 0.00 90 1013.4
20260901102904 73 244 0.0 0.0 0.00 0.00 0.00 90 1013.3
20260901102404 73 244 0.0 0.0 0.00 0.00 0.00 90 1013.2
20260901101904 73 244 0.0 0.0 0.00 0.00 0.00 90 1013.2
20260901101404 73 245 0.0 0.0 0.00 0.00 0.00 90 1013.1
20260901100904 73 246 0.0 0.0 0.00 0.00 0.00 90 1013.2
20260901095404 73 235 0.0 0.0 0.00 0.00 0.00 89 1013.1
20260901094904 73 235 0.0 0.0 0.00 0.00 0.00 89 1013.1
20260901094404 73 235 0.0 0.0 0.00 0.00 0.00 89 1013.2
20260901093904 73 235 0.0 0.0 0.00 0.00 0.00 89 1013.2
20260901093404 73 235 0.0 0.0 0.00 0.00 0.00 89 1013.2
20260901092904 74 235 0.0 0.0 0.00 0.00 0.00 89 1013.2
20260901092403 74 235 0.0 0.0 0.00 0.00 0.00 89 1013.3
20260901091905 73 235 0.0 0.0 0.00 0.00 0.00 89 1013.3
20260901091404 74 235 0.0 0.0 0.00 0.00 0.00 89 1013.3
20260901090904 74 235 0.0 0.0 0.00 0.00 0.00 89 1013.3
20260901090404 74 235 0.0 0.0 0.00 0.00 0.00 89 1013.3
20260901085904 74 235 0.0 3.0 0.00 0.00 0.00 89 1013.3
20260901085404 74 286 0.0 5.0 0.00 0.00 0.00 89 1013.2
20260901084904 74 257 0.0 1.0 0.00 0.00 0.00 89 1013.2
20260901084404 74 237 0.0 0.0 0.00 0.00 0.00 89 1013.2
20260901083904 74 254 0.0 0.0 0.00 0.00 0.00 89 1013.3
20260901083404 74 254 0.0 0.0 0.00 0.00 0.00 89 1013.3
20260901082904 74 254 0.0 0.0 0.00 0.00 0.00 89 1013.4
20260901082404 74 254 0.0 0.0 0.00 0.00 0.00 89 1013.4
20260901081904 74 254 0.0 0.0 0.00 0.00 0.00 89 1013.4
20260901081404 74 271 0.0 0.0 0.00 0.00 0.00 89 1013.4
20260901080904 74 271 0.0 1.0 0.00 0.00 0.00 89 1013.5
20260901080404 74 267 0.0 1.0 0.00 0.00 0.00 89 1013.4
20260901075904 73 259 0.0 0.0 0.00 0.00 0.00 90 1013.3
20260901075404 73 262 0.0 0.0 0.00 0.00 0.00 90 1013.4
20260901074904 73 269 0.0 0.0 0.00 0.00 0.00 90 1013.4
20260901074404 73 259 0.0 0.0 0.00 0.00 0.00 90 1013.4
20260901073404 73 259 0.0 0.0 0.00 0.00 0.00 91 1013.4
20260901072904 73 259 0.0 0.0 0.00 0.00 0.00 91 1013.3
20260901071904 72 259 0.0 0.0 0.00 0.00 0.00 92 1013.4
20260901071404 72 259 0.0 0.0 0.00 0.00 0.00 92 1013.4
20260901070904 72 259 0.0 0.0 0.00 0.00 0.00 92 1013.5
20260901070404 72 260 0.0 0.0 0.00 0.00 0.00 93 1013.4
20260901065904 72 260 0.0 0.0 0.00 0.00 0.00 93 1013.4
20260901065403 72 260 0.0 0.0 0.00 0.00 0.00 93 1013.4
20260901064904 72 260 0.0 0.0 0.00 0.00 0.00 93 1013.4
20260901064404 72 260 0.0 0.0 0.00 0.00 0.00 93 1013.4
20260901063404 72 260 0.0 0.0 0.00 0.00 0.00 93 1013.4
20260901061904 72 260 0.0 0.0 0.00 0.00 0.00 93 1013.6
20260901061404 72 260 0.0 0.0 0.00 0.00 0.00 93 1013.6
20260901060905 72 260 0.0 0.0 0.00 0.00 0.00 93 1013.8
20260901060405 72 260 0.0 0.0 0.00 0.00 0.00 93 1014.0
20260901055905 72 260 0.0 0.0 0.00 0.00 0.00 93 1014.1
20260901055404 72 260 0.0 0.0 0.00 0.00 0.00 93 1014.1
20260901054905 72 260 0.0 0.0 0.00 0.00 0.00 93 1014.1
20260901054404 72 260 0.0 0.0 0.00 0.00 0.00 93 1014.1
20260901053905 72 260 0.0 0.0 0.00 0.00 0.00 93 1014.1
20260901053405 72 260 0.0 0.0 0.00 0.00 0.00 94 1014.1
20260901052905 72 260 0.0 0.0 0.00 0.00 0.00 94 1014.1
20260901051905 72 260 0.0 0.0 0.00 0.00 0.00 94 1014.2
20260901051405 72 260 0.0 0.0 0.00 0.00 0.00 93 1014.3
20260901050905 72 260 0.0 0.0 0.00 0.00 0.00 93 1014.2
20260901050405 72 260 0.0 0.0 0.00 0.00 0.00 93 1014.2
20260901045905 72 260 0.0 0.0 0.00 0.00 0.00 93 1014.2
20260901045404 72 260 0.0 0.0 0.00 0.00 0.00 93 1014.1
20260901044905 72 260 0.0 0.0 0.00 0.00 0.00 93 1014.2
20260901044405 72 260 0.0 0.0 0.00 0.00 0.00 93 1014.3
20260901043905 72 260 0.0 0.0 0.00 0.00 0.00 93 1014.2
20260901043405 72 260 0.0 0.0 0.00 0.00 0.00 93 1014.2
20260901042905 72 260 0.0 0.0 0.00 0.00 0.00 93 1014.3
20260901041905 72 260 0.0 0.0 0.00 0.00 0.00 92 1014.2
20260901040905 72 260 0.0 0.0 0.00 0.00 0.00 92 1014.1
20260901035905 72 260 0.0 0.0 0.00 0.00 0.00 92 1014.2
20260901034905 72 260 0.0 0.0 0.00 0.00 0.00 92 1014.2
20260901034405 72 260 0.0 0.0 0.00 0.00 0.00 92 1014.1
20260901033904 72 260 0.0 0.0 0.00 0.00 0.00 92 1014.2
20260901033404 73 260 0.0 0.0 0.00 0.00 0.00 92 1014.1
20260901032405 73 260 0.0 0.0 0.00 0.00 0.00 91 1014.2
20260901031905 73 260 0.0 0.0 0.00 0.00 0.00 91 1014.1
20260901030905 74 260 0.0 0.0 0.00 0.00 0.00 90 1013.9
20260901030405 74 260 0.0 0.0 0.00 0.00 0.00 91 1014.2
20260901025405 74 260 0.0 0.0 0.00 0.00 0.00 90 1014.2
20260901024905 74 260 0.0 0.0 0.00 0.00 0.00 90 1014.2
20260901023904 74 260 0.0 0.0 0.00 0.00 0.00 90 1014.1
20260901023405 75 260 0.0 0.0 0.00 0.00 0.00 90 1014.1
20260901022905 75 260 0.0 0.0 0.00 0.00 0.00 90 1014.0
20260901022405 75 260 0.0 0.0 0.00 0.00 0.00 88 1013.9
20260901021905 75 260 0.0 0.0 0.00 0.00 0.00 89 1013.7
20260901020905 75 260 0.0 0.0 0.00 0.00 0.00 91 1013.8
20260901020405 75 260 0.0 0.0 0.00 0.00 0.00 91 1014.0
20260901015904 75 260 0.0 0.0 0.00 0.00 0.00 91 1014.0
20260901015404 75 260 0.0 0.0 0.00 0.00 0.00 91 1014.0
20260901014904 75 260 0.0 0.0 0.00 0.00 0.00 91 1014.1
20260901014405 75 260 0.0 0.0 0.00 0.00 0.00 91 1014.0
20260901013904 75 260 0.0 0.0 0.00 0.00 0.00 91 1014.1
20260901013405 75 260 0.0 0.0 0.00 0.00 0.00 91 1014.1
20260901012405 75 260 0.0 0.0 0.00 0.00 0.00 90 1014.2
20260901011405 76 260 0.0 0.0 0.00 0.00 0.00 90 1014.3
20260901010405 76 260 0.0 0.0 0.00 0.00 0.00 90 1014.5
20260901005404 76 260 0.0 0.0 0.00 0.00 0.00 89 1014.7
20260901004904 76 260 0.0 0.0 0.00 0.00 0.00 89 1014.7
20260901003905 76 260 0.0 0.0 0.00 0.01 0.00 89 1014.6
20260901003404 76 260 0.0 0.0 0.00 0.01 0.00 89 1014.5
20260901002904 76 260 0.0 0.0 0.00 0.01 0.00 89 1014.6
20260901002405 77 260 0.0 0.0 0.00 0.01 0.00 88 1014.5
20260901000904 77 260 0.0 0.0 0.00 0.01 0.00 88 1014.6
20260901000405 77 260 0.0 0.0 0.00 0.01 0.00 87 1014.7
20260831235904 78 260 0.0 0.0 0.00 0.01 0.00 85 1014.6
20260831234405 78 260 0.0 0.0 0.00 0.01 0.00 86 1014.5
20260831233905 79 260 0.0 0.0 0.00 0.01 0.00 85 1014.3
20260831233404 79 260 0.0 0.0 0.00 0.01 0.00 84 1014.2
20260831232904 79 260 0.0 0.0 0.00 0.01 0.00 82 1014.1
20260831231904 79 260 0.0 0.0 0.00 0.01 0.00 82 1013.8
20260831231405 79 260 0.0 0.0 0.00 0.01 0.00 85 1014.0
20260831230904 79 260 0.0 0.0 0.00 0.01 0.00 83 1014.2
20260831230405 79 260 0.0 0.0 0.00 0.01 0.00 84 1014.2
20260831225905 79 260 0.0 0.0 0.00 0.01 0.00 83 1014.3
20260831225405 80 260 0.0 0.0 0.00 0.01 0.00 84 1014.4
20260831224904 80 260 0.0 0.0 0.00 0.01 0.00 83 1014.4
20260831224405 80 260 0.0 0.0 0.00 0.01 0.00 82 1014.4
20260831222904 81 260 0.0 0.0 0.00 0.01 0.00 76 1014.4
20260831222404 82 260 0.0 0.0 0.00 0.01 0.00 75 1014.5
20260831221905 82 260 0.0 0.0 0.00 0.01 0.00 74 1014.6
20260831221405 82 260 0.0 0.0 0.00 0.01 0.00 73 1014.5
20260831220904 82 260 0.0 0.0 0.00 0.01 0.00 73 1014.6
20260831220405 83 260 0.0 0.0 0.00 0.01 0.00 71 1014.7
20260831215904 83 260 0.0 0.0 0.00 0.01 0.00 71 1014.7
20260831215404 83 260 0.0 3.0 0.00 0.01 0.00 70 1014.8
20260831214904 83 257 0.0 0.0 0.00 0.01 0.00 70 1014.9
20260831213905 83 257 0.0 0.0 0.00 0.01 0.00 75 1014.8
20260831212904 83 257 0.0 0.0 0.00 0.01 0.00 74 1014.9
20260831212405 83 257 0.0 1.0 0.00 0.01 0.00 74 1014.9
20260831211904 83 257 0.0 1.0 0.00 0.01 0.00 74 1014.8
20260831210905 83 258 0.0 0.0 0.00 0.01 0.00 74 1014.7
20260831210405 83 258 0.0 0.0 0.00 0.01 0.00 72 1014.7
20260831205905 83 258 0.0 0.0 0.00 0.01 0.00 73 1014.6
20260831204904 82 258 0.0 0.0 0.00 0.01 0.00 73 1014.7
20260831204405 82 258 0.0 0.0 0.00 0.01 0.00 79 1014.7
20260831203905 81 258 0.0 0.0 0.00 0.01 0.00 81 1014.8
20260831203404 81 258 0.0 0.0 0.00 0.02 0.00 80 1014.9
20260831201904 81 258 0.0 0.0 0.00 0.02 0.00 76 1014.7
20260831201404 82 258 0.0 0.0 0.00 0.02 0.00 71 1014.6
20260831200905 82 258 0.0 0.0 0.00 0.02 0.00 70 1014.6
20260831195404 84 258 0.0 1.0 0.00 0.02 0.00 67 1014.9
20260831194904 85 258 0.0 5.0 0.00 0.02 0.00 65 1015.0
20260831194404 85 268 1.0 3.0 0.00 0.02 0.00 63 1015.0
20260831193404 86 311 2.0 8.0 0.00 0.02 0.00 64 1015.1
20260831192904 86 276 1.0 5.0 0.00 0.02 0.00 64 1015.1
20260831192405 87 273 0.0 3.0 0.00 0.02 0.00 63 1015.1
20260831191904 88 254 0.0 3.0 0.00 0.02 0.00 62 1015.1
20260831190905 88 250 0.0 0.0 0.00 0.02 0.00 63 1015.3
20260831190404 88 254 0.0 1.0 0.00 0.02 0.00 61 1015.3
20260831185904 87 257 1.0 6.0 0.00 0.02 0.00 62 1015.4
20260831185404 86 286 0.0 1.0 0.00 0.02 0.00 64 1015.4
20260831184405 86 257 1.0 5.0 0.00 0.02 0.00 63 1015.5
20260831183905 86 270 1.0 6.0 0.00 0.02 0.00 64 1015.5
20260831183404 86 268 1.0 14.0 0.00 0.02 0.00 65 1015.5
20260831182904 86 265 0.0 3.0 0.00 0.02 0.00 64 1015.5
20260831182405 85 249 0.0 1.0 0.00 0.02 0.00 65 1015.6
20260831181904 84 259 0.0 0.0 0.00 0.02 0.00 70 1015.6
20260831181404 84 259 0.0 1.0 0.00 0.02 0.00 68 1015.6
20260831180904 84 255 0.0 5.0 0.00 0.02 0.00 67 1015.6
20260831180405 84 255 2.0 6.0 0.00 0.02 0.00 66 1015.6
20260831175405 85 275 0.0 0.0 0.00 0.02 0.00 69 1015.6
20260831174905 85 277 0.0 0.0 0.00 0.02 0.00 68 1015.6
20260831174404 85 277 0.0 0.0 0.00 0.02 0.00 68 1015.5
20260831173405 86 261 0.0 0.0 0.00 0.02 0.00 67 1015.6
20260831172404 85 207 0.0 0.0 0.00 0.02 0.00 68 1015.7
20260831171904 85 239 0.0 0.0 0.00 0.02 0.00 64 1015.7
20260831171404 85 283 0.0 3.0 0.00 0.02 0.00 66 1015.7
20260831170904 85 234 0.0 1.0 0.00 0.02 0.00 68 1015.7
20260831170404 84 192 0.0 5.0 0.00 0.02 0.00 68 1015.9
20260831165405 84 272 0.0 1.0 0.00 0.02 0.00 69 1015.9
20260831164904 84 269 1.0 8.0 0.00 0.02 0.00 66 1016.0
20260831164404 84 211 0.0 5.0 0.00 0.02 0.00 68 1015.9
20260831163904 84 268 1.0 9.0 0.00 0.03 0.00 67 1015.9
20260831162904 85 200 0.0 8.0 0.00 0.03 0.00 70 1015.9
20260831162404 84 232 0.0 0.0 0.00 0.03 0.00 73 1016.0
20260831161904 84 172 0.0 1.0 0.00 0.03 0.00 74 1016.0
20260831160905 84 231 0.0 1.0 0.00 0.03 0.00 73 1016.0
20260831160404 83 173 0.0 0.0 0.00 0.03 0.00 77 1016.1
20260831155404 82 238 0.0 5.0 0.00 0.03 0.00 78 1016.2
20260831154904 81 223 1.0 5.0 0.00 0.03 0.00 79 1016.2
20260831154404 80 222 0.0 1.0 0.00 0.03 0.00 80 1016.2
20260831153904 80 215 0.0 0.0 0.00 0.03 0.00 79 1016.3
20260831153404 79 253 0.0 1.0 0.00 0.03 0.00 82 1016.4
20260831152904 79 253 0.0 5.0 0.00 0.03 0.00 83 1016.4
20260831152404 78 169 0.0 0.0 0.00 0.03 0.00 84 1016.5
20260831151904 77 169 0.0 0.0 0.00 0.03 0.00 86 1016.6
20260831151408 76 169 0.0 0.0 0.00 0.03 0.00 87 1016.6
20260831150904 76 169 0.0 0.0 0.00 0.03 0.00 88 1016.6
20260831150404 76 169 0.0 1.0 0.00 0.03 0.00 87 1016.6
20260831145905 75 237 0.0 0.0 0.00 0.03 0.00 88 1016.7
20260831145404 75 237 0.0 0.0 0.00 0.03 0.00 88 1016.9
20260831144904 75 237 0.0 0.0 0.00 0.03 0.00 89 1016.9
20260831144404 74 237 0.0 0.0 0.00 0.03 0.00 90 1016.7
20260831143904 73 237 0.0 0.0 0.00 0.03 0.00 90 1016.8
20260831143404 73 238 0.0 0.0 0.00 0.03 0.00 91 1016.8
20260831142904 72 238 0.0 0.0 0.00 0.03 0.00 90 1016.7
20260831142404 72 238 0.0 1.0 0.00 0.03 0.00 91 1016.7
20260831141404 71 177 0.0 0.0 0.00 0.03 0.00 93 1016.6
20260831140904 71 177 0.0 0.0 0.00 0.03 0.00 94 1016.7
20260831140404 70 177 0.0 0.0 0.00 0.03 0.00 94 1016.7
20260831135904 70 177 0.0 1.0 0.00 0.03 0.00 94 1016.6
20260831135404 70 230 0.0 0.0 0.00 0.03 0.00 95 1016.7
20260831134904 69 248 0.0 0.0 0.00 0.03 0.00 94 1016.7
20260831134404 69 248 0.0 0.0 0.00 0.03 0.00 95 1016.7
20260831133904 69 248 0.0 0.0 0.00 0.03 0.00 95 1016.8
20260831132905 69 248 0.0 0.0 0.00 0.03 0.00 95 1016.9
20260831132406 68 248 0.0 0.0 0.00 0.03 0.00 95 1016.9
20260831131904 68 248 0.0 0.0 0.00 0.03 0.00 95 1017.1
20260831131404 68 248 0.0 0.0 0.00 0.03 0.00 95 1017.1
20260831130904 68 248 0.0 0.0 0.00 0.03 0.00 95 1017.1
20260831130404 68 248 0.0 0.0 0.00 0.03 0.00 95 1017.0
20260831125904 68 248 0.0 0.0 0.00 0.03 0.00 95 1017.0
20260831125404 68 248 0.0 0.0 0.00 0.03 0.00 95 1017.0
20260831124904 68 248 0.0 0.0 0.00 0.03 0.00 95 1016.9
20260831124404 68 248 0.0 0.0 0.00 0.03 0.00 95 1017.0
20260831123904 68 248 0.0 0.0 0.00 0.03 0.00 95 1016.9
20260831123404 68 248 0.0 0.0 0.00 0.03 0.00 95 1016.9
20260831122404 67 248 0.0 0.0 0.00 0.03 0.00 95 1016.9
20260831121904 67 248 0.0 0.0 0.00 0.03 0.00 95 1017.0
20260831120904 67 248 0.0 0.0 0.00 0.03 0.00 95 1017.0
20260831115903 67 248 0.0 0.0 0.00 0.03 0.00 95 1017.1
20260831114904 67 248 0.0 0.0 0.00 0.03 0.00 95 1017.0
20260831114404 67 248 0.0 0.0 0.00 0.03 0.00 95 1017.0
20260831113404 67 248 0.0 0.0 0.00 0.03 0.00 95 1016.9